Retour au catalogue

COSMOS 2251 DEB

ActifLEO
NORAD 33973·DEBRIS·🇷🇺 Russia

Lancé Jun 16, 1993 depuis Plesetsk Cosmodrome

Loading…

Prochains Passages (prochaines 24 heures)

TLE

FraisSource: Space-Track

Époque: Sep 14, 2026, 21:18 UTC

1 33973U 93036FG  26257.88816316  .00000210  00000-0  66488-4 0  9998
2 33973  74.0082 307.1824 0044942  58.3834 118.3435 14.45611808925905

Suivez COSMOS 2251 DEB en temps réel avec AllMySat

Download on the App Store